Location: Newark
(34.3481°N, 134.0494°E)
Time: 15:26:21
(UTC+00:00)

Vanguard 3 - Pass Details

Date: 30 January 2020
Orbit: 508 x 3263 km, 33.3° (Epoch: 23 February)

Event Time Altitude Azimuth Distance (km) Brightness Sun altitude
Rises 05:40:49 0° 225° (SW) 5,793 12.8 27.6°
Reaches altitude 10° 05:44:16 10° 221° (SW) 5,094 13.0 27.2°
Maximum altitude 06:00:00 56° 148° (SSE) 3,539 10.9 25.0°
Drops below altitude 10° 06:19:02 10° 78° (ENE) 6,065 11.2 22.2°
Sets 06:23:33 0° 74° (ENE) 6,917 11.4 21.6°
